Wind_Speed
17 17 17 16 16 17 17 16 15 14 15 14 13 12 10 9 7 6 6 7 8 8 9 9 10 11 12 13 14 15 17 18 19 21 22 24 25 27 29 30 32 33 35 36
17 17 17 17 17 18 17 17 18 16 15 14 14 12 11 10 9 8 8 8 9 10 11 12 12 13 14 15 16 17 19 20 21 23 25 26 28 29 30 32 33 35 36 38
18 18 17 16 16 17 18 18 19 18 16 15 14 13 12 11 11 10 10 10 11 12 14 14 15 15 16 17 18 19 21 22 24 25 27 28 29 31 32 33 34 36 38 39
20 20 18 15 17 17 18 19 19 19 17 16 16 15 13 12 12 12 12 12 13 14 15 16 17 18 19 20 21 22 23 24 25 27 28 29 31 32 34 35 36 37 39 40
21 20 18 18 18 18 19 21 20 19 18 17 16 16 14 13 13 13 14 14 14 15 16 18 19 20 21 22 23 24 26 26 27 29 30 32 33 34 35 37 38 39 40 42
22 21 20 18 19 19 19 22 21 20 19 19 18 17 15 15 15 15 16 17 17 17 18 20 21 22 23 23 25 26 27 28 29 31 32 34 35 35 37 38 39 40 41 42
22 21 20 19 18 20 21 20 20 21 21 20 19 18 18 18 18 18 18 19 19 20 20 22 23 24 25 26 27 28 29 30 32 33 34 35 36 37 39 39 40 41 42 42
23 22 21 20 19 20 21 20 20 20 20 21 21 20 19 19 18 18 20 20 21 22 23 24 25 26 27 28 29 30 31 32 33 35 36 37 38 39 40 40 41 42 42 42
24 24 22 21 20 21 22 21 20 20 22 22 21 21 21 21 21 20 22 23 24 25 25 26 27 28 29 30 31 32 32 33 35 36 37 38 40 41 41 41 42 43 43 43
23 22 22 23 22 22 22 21 21 22 22 22 22 22 21 22 23 23 23 24 26 27 28 29 29 30 31 32 33 34 35 36 37 38 39 40 41 42 42 42 43 43 44 44
23 23 21 21 22 23 22 21 22 23 23 22 23 23 23 23 24 25 26 27 28 29 29 30 31 32 33 34 35 36 37 38 39 40 40 41 42 43 43 44 44 44 44 44
24 24 23 23 23 23 23 22 23 24 24 23 22 23 24 25 26 27 28 29 30 30 31 32 33 34 35 36 37 38 39 40 41 41 42 43 44 44 44 45 45 45 45 45
25 25 25 24 25 25 25 25 24 23 23 24 24 25 25 26 28 29 30 31 31 32 34 34 35 36 38 39 40 41 41 41 42 43 44 45 46 46 46 46 46 47 46 45
25 26 27 27 27 25 25 25 25 25 25 25 25 26 27 28 29 30 31 33 34 35 36 37 38 39 40 40 42 43 43 43 44 45 46 47 47 47 47 48 48 47 47 46
25 26 26 26 26 26 27 27 27 27 27 27 27 28 29 30 31 32 34 35 36 37 38 39 39 40 41 42 43 44 44 45 46 47 48 48 49 49 50 49 49 49 47 47
25 25 25 25 26 27 28 28 28 28 29 29 29 30 31 32 33 34 35 36 37 38 39 40 41 42 43 44 45 46 47 48 48 49 50 50 51 51 50 50 50 49 49 47
25 25 25 25 26 27 28 28 29 30 31 31 31 32 33 33 34 35 37 38 39 40 41 42 43 45 46 47 47 48 49 50 51 51 51 52 52 52 51 51 50 50 48 47
25 25 25 25 26 27 28 29 30 31 32 32 33 34 34 35 36 37 39 40 41 42 43 44 46 47 48 49 50 51 51 52 52 53 53 53 53 53 52 52 50 49 47 44
24 25 25 26 27 28 29 30 31 32 34 35 36 37 38 39 40 40 41 42 43 44 45 46 48 49 50 51 52 53 53 54 54 54 54 54 54 53 52 50 49 47 44 41
25 25 27 28 29 31 32 34 35 36 37 38 39 40 41 42 43 43 44 44 45 46 47 48 49 50 51 52 53 54 55 55 54 54 54 53 52 51 49 47 46 43 41 38
27 28 30 31 32 33 35 37 38 39 40 41 42 42 43 44 45 45 46 47 48 49 50 50 51 52 53 53 54 54 54 54 53 53 52 50 49 48 45 43 41 39 36 34
29 31 33 34 36 37 38 39 40 41 42 43 44 44 45 46 47 48 49 50 50 51 51 52 52 53 53 53 53 52 52 52 51 50 49 48 46 43 41 38 36 34 32 30
33 35 37 38 39 40 40 41 42 43 44 45 46 47 48 48 49 50 50 51 51 51 52 52 51 51 51 51 51 51 50 49 48 47 45 44 41 39 36 34 32 30 28 27
38 39 40 41 42 42 43 44 45 46 46 47 48 48 49 49 49 50 51 51 51 50 50 50 49 49 49 49 49 48 47 45 44 42 40 38 36 34 32 30 28 27 25 24
40 41 43 43 44 45 45 46 46 47 47 47 47 48 48 48 49 49 48 48 48 48 47 47 47 46 46 45 44 43 42 40 38 36 34 32 30 29 27 25 24 23 21 20
42 42 43 44 45 46 46 46 46 46 46 46 46 46 46 46 46 46 46 45 45 45 44 44 43 42 41 40 39 37 35 34 32 31 28 27 25 23 21 20 19 18 18 18
43 44 44 44 44 44 44 44 44 44 44 44 43 43 43 42 42 42 42 42 41 41 40 39 39 38 37 36 34 32 30 28 27 25 23 22 21 19 17 16 16 16 16 16
Wind_Direction
275 277 273 264 260 259 253 250 253 255 262 270 277 282 289 296 299 304 305 306 307 308 304 302 301 302 303 304 305 306 308 310 311 312 313 315 317 318 319 320 321 322 323 324
271 273 270 263 258 249 245 247 253 256 258 267 276 281 285 291 295 296 296 296 297 296 295 295 296 298 299 300 303 306 307 308 308 309 310 312 315 317 318 319 320 321 321 322
271 271 268 265 257 248 245 246 251 254 258 265 276 279 278 284 289 290 290 289 289 290 290 291 291 293 295 297 300 302 304 305 306 307 309 311 313 315 316 317 319 320 321 322
270 270 264 259 250 245 244 246 250 255 260 266 269 273 273 283 286 285 285 288 288 288 286 286 286 288 290 293 296 298 301 303 305 306 307 309 311 312 313 315 317 319 321 322
269 269 262 256 250 247 246 246 251 254 257 263 264 267 267 273 278 281 282 282 284 286 286 285 285 285 288 291 293 296 299 301 303 304 305 307 309 311 312 314 316 318 319 321
268 266 263 259 253 254 252 251 254 259 261 257 261 263 267 271 275 280 282 282 283 284 285 285 285 286 287 289 291 293 296 298 300 303 305 308 310 311 312 313 314 316 318 320
266 265 264 262 257 258 257 260 260 263 267 265 263 267 271 272 276 279 280 282 284 284 285 286 286 287 288 290 291 293 295 297 299 302 304 307 309 310 311 312 313 314 316 318
263 264 265 266 261 260 262 266 268 269 270 269 268 269 276 279 280 282 282 284 285 285 286 286 286 287 288 290 291 293 296 297 299 302 304 305 307 309 310 310 312 313 315 316
267 268 269 265 270 271 266 266 268 271 274 275 273 272 275 279 281 283 285 285 285 285 287 287 287 288 289 291 293 294 296 298 300 302 304 305 307 309 309 310 311 312 313 315
270 274 274 273 273 270 270 273 276 274 274 276 276 274 275 277 280 286 288 287 287 288 288 288 288 288 290 292 293 294 296 297 299 301 303 305 306 308 308 309 310 311 312 314
273 276 280 278 276 275 276 275 278 281 280 278 278 281 281 282 284 285 286 287 288 288 288 288 287 288 290 292 293 295 296 297 299 300 302 304 306 307 307 308 309 310 311 312
273 276 279 279 279 280 279 278 280 281 281 279 281 284 285 285 286 285 286 286 286 286 287 286 287 288 289 291 293 295 295 296 298 299 301 303 304 305 306 307 307 309 309 310
271 274 276 277 279 279 280 281 280 281 282 282 283 283 284 284 285 285 286 285 286 286 286 286 288 290 291 291 293 294 295 296 298 299 300 302 303 304 304 305 306 308 308 308
268 272 275 276 278 280 280 283 286 286 285 285 284 284 283 284 284 284 284 284 285 286 286 287 288 289 290 292 293 294 295 295 297 298 300 300 301 302 303 304 305 306 306 306
270 274 272 273 276 279 282 284 285 286 286 286 286 285 284 284 284 283 283 284 285 285 285 286 288 289 290 291 293 293 294 295 296 297 298 299 299 300 301 302 303 303 304 304
267 270 272 274 277 279 281 284 285 286 287 287 286 286 286 286 285 285 285 285 286 286 287 288 289 290 290 292 292 292 293 294 295 296 297 298 298 298 299 299 300 301 301 301
265 266 270 274 277 280 282 284 284 284 285 286 286 286 286 287 287 287 287 287 287 287 288 289 290 290 291 291 292 292 293 293 294 295 296 296 297 297 297 297 298 298 299 299
268 271 273 276 279 281 282 284 284 285 286 287 287 288 288 288 288 289 289 289 289 289 290 290 290 291 291 292 293 293 293 294 294 295 295 295 296 296 296 296 296 296 296 296
274 276 279 281 282 283 284 285 286 286 287 289 289 290 290 290 290 290 290 290 291 291 291 291 291 292 292 293 293 294 294 294 294 294 294 294 294 294 294 294 294 294 294 293
282 283 283 282 283 284 285 286 287 287 288 289 290 291 291 292 292 292 292 292 292 292 292 292 292 292 292 293 293 293 293 294 294 293 293 293 293 293 292 292 292 292 291 290
283 283 282 281 283 285 287 287 288 289 289 290 291 292 292 293 293 293 293 293 293 293 293 293 293 293 293 293 293 293 293 294 294 293 293 292 292 292 291 290 290 289 288 287
281 283 283 284 285 287 288 288 289 289 290 291 292 292 293 293 293 294 294 294 293 294 294 294 294 294 293 293 293 293 293 293 293 293 292 292 291 290 289 288 287 286 285 284
282 283 285 286 287 288 289 289 290 290 291 292 293 293 293 293 294 294 294 294 294 294 294 294 294 294 294 294 294 294 294 293 293 293 292 291 290 288 288 286 283 281 281 279
283 284 285 286 287 288 289 290 290 291 292 293 293 294 294 294 294 294 294 294 294 295 295 295 296 295 294 294 295 295 294 294 294 293 293 292 289 286 285 284 282 280 278 276
284 285 287 288 289 290 290 291 291 292 293 293 294 294 294 294 294 295 295 296 296 296 296 297 297 297 296 296 296 296 296 295 295 294 293 292 289 286 282 281 280 279 276 273
286 287 288 289 291 292 292 293 293 294 294 294 294 295 295 295 296 296 297 297 297 297 297 297 298 298 298 298 298 298 297 295 295 294 293 291 287 283 279 278 279 276 274 272
286 287 288 289 290 292 292 293 293 294 294 295 295 296 296 296 296 297 297 297 298 298 298 298 299 299 299 299 299 298 296 295 296 295 293 290 285 280 276 276 277 274 272 271
Height
5849 5849 5849 5848 5848 5848 5848 5848 5848 5849 5849 5850 5850 5850 5850 5850 5850 5850 5849 5849 5849 5848 5848 5848 5848 5847 5846 5845 5844 5842 5840 5838 5836 5833 5830 5827 5824 5820 5816 5812 5807 5802 5797 5792
5844 5844 5843 5843 5843 5843 5843 5843 5843 5843 5844 5845 5845 5846 5846 5846 5846 5846 5846 5846 5845 5845 5845 5844 5844 5843 5842 5841 5839 5838 5835 5833 5831 5828 5825 5822 5818 5814 5810 5805 5800 5795 5790 5784
5839 5839 5838 5839 5839 5838 5838 5838 5839 5839 5841 5840 5841 5841 5841 5842 5842 5842 5842 5842 5841 5841 5840 5840 5839 5838 5837 5836 5834 5832 5830 5828 5825 5822 5819 5815 5811 5807 5803 5798 5793 5788 5782 5776
5833 5834 5834 5837 5834 5834 5833 5833 5833 5834 5835 5835 5836 5837 5837 5838 5838 5838 5838 5838 5837 5836 5836 5835 5834 5833 5832 5830 5828 5826 5824 5821 5819 5815 5812 5808 5804 5800 5795 5791 5785 5780 5774 5768
5827 5827 5828 5829 5829 5829 5829 5828 5829 5829 5830 5830 5831 5832 5833 5833 5833 5833 5833 5833 5833 5832 5831 5830 5828 5827 5826 5824 5822 5820 5817 5814 5811 5808 5805 5801 5797 5792 5787 5782 5777 5772 5766 5760
5821 5821 5822 5824 5824 5824 5825 5823 5824 5825 5825 5825 5826 5827 5828 5828 5828 5828 5828 5828 5827 5826 5825 5824 5822 5821 5819 5817 5815 5813 5810 5807 5804 5800 5797 5793 5788 5784 5779 5774 5768 5763 5757 5751
5815 5815 5816 5818 5818 5819 5820 5820 5819 5819 5819 5819 5820 5822 5823 5822 5822 5822 5822 5822 5821 5820 5818 5817 5815 5813 5812 5810 5807 5805 5802 5799 5796 5792 5788 5784 5779 5774 5770 5764 5759 5754 5748 5742
5809 5810 5812 5811 5812 5813 5814 5814 5814 5814 5814 5814 5815 5816 5816 5816 5816 5816 5816 5815 5814 5813 5811 5810 5808 5806 5804 5802 5799 5796 5794 5790 5787 5783 5778 5774 5770 5765 5760 5755 5750 5744 5738 5732
5803 5805 5804 5804 5805 5806 5807 5808 5808 5808 5808 5809 5809 5809 5809 5809 5809 5809 5808 5808 5807 5805 5804 5802 5800 5798 5796 5793 5790 5787 5784 5781 5777 5773 5769 5765 5760 5755 5750 5745 5740 5734 5728 5723
5796 5796 5797 5797 5798 5799 5801 5801 5802 5801 5802 5802 5802 5802 5802 5802 5802 5801 5800 5800 5798 5797 5795 5794 5791 5789 5786 5784 5781 5778 5775 5771 5767 5763 5759 5755 5750 5745 5740 5735 5729 5724 5718 5712
5789 5790 5791 5791 5792 5793 5794 5795 5795 5794 5794 5794 5794 5794 5794 5794 5794 5793 5792 5792 5790 5788 5787 5785 5782 5780 5777 5774 5771 5768 5765 5761 5757 5753 5749 5744 5740 5734 5729 5724 5718 5713 5707 5701
5783 5784 5785 5786 5786 5787 5787 5788 5788 5787 5787 5787 5786 5786 5786 5786 5785 5784 5783 5782 5781 5779 5777 5774 5772 5770 5767 5764 5761 5758 5754 5750 5746 5742 5738 5733 5728 5724 5718 5713 5708 5702 5696 5690
5777 5777 5778 5778 5779 5779 5780 5780 5780 5780 5780 5780 5779 5779 5778 5777 5776 5775 5774 5772 5771 5769 5766 5764 5762 5759 5756 5753 5750 5746 5742 5738 5734 5730 5726 5721 5717 5712 5707 5702 5696 5690 5684 5679
5770 5770 5770 5771 5771 5771 5771 5771 5771 5772 5772 5772 5771 5771 5770 5768 5767 5765 5764 5762 5760 5758 5756 5753 5751 5748 5745 5742 5738 5734 5730 5726 5722 5718 5714 5709 5704 5699 5694 5689 5684 5678 5672 5667
5762 5763 5763 5763 5763 5763 5763 5763 5764 5764 5763 5763 5762 5761 5760 5758 5757 5755 5753 5751 5749 5747 5745 5742 5739 5736 5733 5730 5726 5722 5718 5714 5709 5705 5700 5696 5691 5686 5681 5675 5671 5666 5661 5655
5755 5755 5754 5755 5755 5755 5755 5755 5755 5754 5754 5753 5752 5751 5749 5748 5746 5744 5742 5740 5738 5735 5732 5730 5727 5723 5720 5716 5713 5709 5704 5700 5696 5691 5687 5682 5677 5672 5667 5662 5657 5652 5647 5643
5747 5747 5747 5747 5747 5747 5747 5746 5746 5745 5744 5743 5742 5740 5739 5737 5735 5733 5730 5728 5725 5723 5720 5717 5713 5710 5706 5702 5698 5694 5690 5686 5681 5677 5672 5667 5662 5657 5652 5647 5643 5638 5634 5629
5739 5739 5739 5739 5739 5739 5738 5737 5736 5735 5733 5732 5730 5729 5727 5725 5723 5721 5718 5715 5713 5710 5706 5703 5699 5695 5691 5687 5683 5679 5675 5670 5665 5661 5656 5651 5646 5642 5637 5632 5628 5624 5620 5616
5731 5731 5731 5731 5731 5730 5729 5727 5726 5724 5723 5721 5719 5717 5715 5713 5711 5708 5705 5702 5699 5696 5692 5688 5684 5680 5676 5672 5667 5663 5658 5654 5649 5644 5639 5635 5630 5626 5621 5617 5613 5610 5606 5603
5723 5723 5723 5722 5721 5720 5719 5717 5716 5714 5712 5710 5707 5705 5703 5700 5697 5694 5691 5688 5685 5681 5677 5673 5669 5665 5660 5656 5651 5646 5642 5637 5632 5628 5623 5618 5614 5610 5606 5602 5599 5596 5593 5590
5715 5715 5714 5712 5711 5710 5708 5706 5704 5702 5700 5697 5695 5692 5689 5686 5683 5680 5676 5673 5669 5665 5661 5657 5653 5649 5644 5639 5634 5630 5625 5620 5615 5610 5606 5602 5598 5594 5591 5587 5585 5582 5580 5578
5706 5705 5703 5702 5700 5698 5696 5694 5692 5689 5686 5684 5681 5678 5675 5672 5669 5665 5661 5658 5653 5649 5645 5641 5636 5631 5627 5622 5617 5613 5608 5603 5598 5594 5590 5586 5582 5579 5577 5574 5572 5570 5568 5567
5695 5694 5692 5690 5688 5686 5684 5681 5679 5676 5673 5670 5667 5664 5660 5657 5653 5650 5646 5642 5637 5633 5628 5624 5619 5614 5609 5605 5600 5596 5591 5587 5582 5578 5574 5570 5567 5565 5563 5561 5560 5559 5558 5557
5684 5682 5680 5678 5676 5674 5671 5668 5665 5662 5659 5656 5653 5649 5645 5642 5638 5633 5629 5625 5621 5617 5612 5607 5603 5598 5593 5589 5584 5580 5575 5571 5567 5563 5559 5556 5554 5552 5551 5550 5549 5548 5548 5547
5672 5670 5667 5665 5663 5660 5657 5654 5651 5648 5645 5642 5638 5634 5630 5626 5622 5618 5614 5609 5605 5601 5596 5592 5587 5583 5578 5573 5569 5565 5561 5557 5553 5550 5547 5544 5542 5541 5540 5540 5539 5539 5539 5538
5660 5657 5655 5652 5649 5646 5643 5640 5637 5634 5631 5627 5623 5619 5615 5611 5607 5603 5599 5595 5590 5586 5582 5577 5573 5569 5564 5560 5556 5552 5549 5545 5542 5539 5537 5534 5533 5532 5531 5531 5531 5531 5531 5531
5647 5644 5642 5639 5636 5633 5630 5627 5623 5620 5616 5613 5610 5606 5602 5598 5594 5590 5585 5581 5577 5573 5568 5564 5560 5556 5552 5548 5545 5541 5538 5535 5533 5530 5528 5526 5525 5525 5524 5524 5524 5524 5525 5525